This demonstration page uses our WeatherBlox Daily Observations layout. Learn more.

Left ArrowRight Arrow

39.29038, -76.61219

Hourly Observations for July 10, 2020

Temp ( °F °C ) Dew Point ( °F °C ) Humidity (%) Winds ( mph kmh ) Pressure ( in mb ) Visibility ( mi km ) Precip ( " mm )
12:54 am 00:54 Partly Cloudy 78 25.6 72 22.2 82 82 ENE 6 9 29.93 1014 10 16 0.00 0.00
1:54 am 01:54 Mostly Cloudy 79 26.1 72 22.2 79 79 E 7 11 29.92 1013 10 16 0.00 0.00
2:54 am 02:54 Mostly Cloudy 79 26.1 72 22.2 79 79 NE 7 11 29.91 1013 10 16 0.00 0.00
3:06 am 03:06 Mostly Cloudy 79 26.1 72 22.2 79 79 NE 7 11 29.90 1013 10 16 0.00 0.00
3:54 am 03:54 Mostly Cloudy 79 26.1 72 22.2 79 79 NE 9 15 29.90 1013 10 16 0.00 0.00
4:17 am 04:17 Mostly Cloudy 77 25 73 22.8 88 88 N 6 9 29.88 1012 10 16 0.00 0.00
4:54 am 04:54 Cloudy 76 24.4 73 22.8 91 91 NNE 6 9 29.88 1012 10 16 0.06 1.52
5:54 am 05:54 Mostly Cloudy 76 24.4 72 22.2 88 88 NNE 8 13 29.88 1012 10 16 0.00 0.00
6:21 am 06:21 Mostly Cloudy 76 24.4 72 22.2 88 88 N 8 13 29.87 1012 10 16 0.00 0.00
6:33 am 06:33 Mostly Cloudy 76 24.4 72 22.2 88 88 NNE 8 13 29.86 1011 10 16 0.00 0.00
6:54 am 06:54 Mostly Cloudy 76 24.4 72 22.2 88 88 NNE 7 11 29.86 1011 10 16 0.00 0.00
7:54 am 07:54 Mostly Cloudy 77 25 71 21.7 82 82 N 7 11 29.85 1011 10 16 0.00 0.00
8:02 am 08:02 Mostly Cloudy 77 25 71 21.7 82 82 NNE 10 17 29.85 1011 10 16 0.00 0.00
8:54 am 08:54 Mostly Cloudy 77 25 71 21.7 82 82 N 8 13 29.85 1011 10 16 0.00 0.00
9:54 am 09:54 Mostly Cloudy 79 26.1 71 21.7 77 77 N 8 13 29.83 1010 10 16 0.00 0.00
10:54 am 10:54 Mostly Cloudy 80 26.7 71 21.7 74 74 NNE 6 9 29.85 1011 10 16 0.00 0.00
11:54 am 11:54 Mostly Cloudy 80 26.7 70 21.1 71 71 NNE 13 20 29.84 1010 10 16 0.00 0.00
12:03 pm 12:03 Mostly Cloudy 81 27.2 70 21.1 69 69 NNE 14 22 29.83 1010 10 16 0.00 0.00
12:54 pm 12:54 Mostly Cloudy 83 28.3 70 21.1 65 65 N 8 13 29.82 1010 10 16 0.00 0.00
1:54 pm 13:54 Mostly Cloudy 85 29.4 69 20.6 59 59 N 12 19 29.80 1009 10 16 0.00 0.00
2:54 pm 14:54 Mostly Cloudy 86 30 70 21.1 59 59 N 13 20 29.78 1008 10 16 0.00 0.00
3:54 pm 15:54 Mostly Cloudy 87 30.6 69 20.6 55 55 NNW 8 13 29.76 1008 10 16 0.00 0.00
4:54 pm 16:54 Mostly Cloudy 87 30.6 69 20.6 55 55 NNW 12 19 29.74 1007 10 16 0.00 0.00
5:54 pm 17:54 Partly Cloudy 85 29.4 69 20.6 59 59 NW 12 19 29.73 1007 10 16 0.00 0.00
6:54 pm 18:54 Partly Cloudy 86 30 69 20.6 57 57 NW 6 9 29.73 1007 10 16 0.00 0.00
7:54 pm 19:54 Partly Cloudy 84 28.9 69 20.6 61 61 VRB 6 9 29.73 1007 10 16 0.00 0.00
8:54 pm 20:54 Partly Cloudy 81 27.2 69 20.6 67 67 Calm 29.74 1007 10 16 0.00 0.00
9:54 pm 21:54 Partly Cloudy 79 26.1 70 21.1 74 74 Calm 29.75 1008 10 16 0.00 0.00
10:54 pm 22:54 Partly Cloudy 76 24.4 70 21.1 82 82 Calm 29.74 1007 10 16 0.00 0.00
11:54 pm 23:54 Mostly Cloudy 78 25.6 70 21.1 76 76 Calm 29.74 1007 10 16 0.00 0.00

Powered by AerisWeather